Regional Weather Roundup
Issued by NWS Sioux Falls, SD

Home | Current Version | Previous Version | Graphics & Text | Print | Product List | Glossary Off
Versions: 1 2 3 4 5 6 7 8 9 10 11 12 13 14 15 16 17 18 19 20 21 22 23 24 25 26 27 28 29 30 31 32 33 34 35 36 37 38 39 40 41 42 43 44 45 46 47 48 49 50

000
ASUS43 KFSD 300002
RWRFSD

WEATHER ROUNDUP FOR SE SOUTH DAKOTA/SW MINNESOTA/NW IOWA
NATIONAL WEATHER SERVICE SIOUX FALLS SD
700 PM CDT WED JUL 29 2015

NOTE: "FAIR" INDICATES FEW OR NO CLOUDS BELOW 12,000 FEET WITH NO
SIGNIFICANT WEATHER AND OR OBSTRUCTIONS TO VISIBILITY.


SDZ038>040-050-052>070-300100-
SOUTHEAST SOUTH DAKOTA

CITY           SKY/WX    TMP DP  RH WIND       PRES   REMARKS
BROOKINGS      SUNNY     79  54  41 NW10      30.08S
CHAMBERLAIN    NOT AVBL
HURON          SUNNY     83  53  35 NW9       30.04F
6HR MIN TEMP:  82; 6HR MAX TEMP:  86;

MADISON        FAIR      79  54  41 NW10G16   30.08S
MITCHELL       SUNNY     85  48  27 NW13      30.07S
6HR MIN TEMP:  83; 6HR MAX TEMP:  87;

SIOUX FALLS    SUNNY     82  55  39 W6        30.07S
6HR MIN TEMP:  79; 6HR MAX TEMP:  83;

WINNER         FAIR      86  43  22 NW10      30.12F
YANKTON        SUNNY     82  55  39 W7        30.08F
$$

MNZ071-072-080-081-089-090-097-098-300100-
SOUTHWEST MINNESOTA

CITY           SKY/WX    TMP DP  RH WIND       PRES   REMARKS
FAIRMONT       SUNNY     81  52  36 W10G20    30.04S
JACKSON        SUNNY     81  54  39 W10G17    30.07S
LUVERNE        SUNNY     81  55  41 NW6       30.08S
MARSHALL       SUNNY     81  52  36 NW16G23   30.04S
6HR MIN TEMP:  79; 6HR MAX TEMP:  82;

MONTEVIDEO     SUNNY     81  52  36 NW9G16    30.01F
PIPESTONE      SUNNY     79  54  41 NW7       30.08S
REDWOOD FALLS  SUNNY     81  55  40 NW13      30.00S
TRACY          SUNNY     79  55  44 W8        30.04F
WINDOM         SUNNY     81  55  41 W10       30.05S
WORTHINGTON    SUNNY     79  57  47 W7        30.08S
$$

IAZ001>003-012>014-020>022-031-032-NEZ013-014-SDZ071-300100-
NORTHWEST IOWA

CITY           SKY/WX    TMP DP  RH WIND       PRES   REMARKS
DENISON        SUNNY     79  63  57 W7        30.11S HAZE
ESTHERVILLE    SUNNY     79  57  46 W9        30.06F
SIOUX CITY     SUNNY     82  61  48 W7        30.10F
6HR MIN TEMP:  81; 6HR MAX TEMP:  85;

SPENCER        SUNNY     81  57  43 W12       30.08S
6HR MIN TEMP:  81; 6HR MAX TEMP:  83;

$$

ABBREVIATIONS USED IN REMARKS
   TC - TEMPERATURE IN CELSIUS
  WCI - WIND CHILL INDEX
   HX - HEAT INDEX
  VSB - VISIBILITY




USA.gov is the U.S. government's official web portal to all federal, state and local government web resources and services.